#timestamp,LO_Frequency,Hit,StdDev 
1513688415.8,286046998.1,N
1513688435.7,286047002.8,N
1513688455.5,286047003.7,N
1513688475.3,286047001.1,N
1513688495.1,286046998.8,N
1513688515.9,286047000.3,N
1513688535.7,286047005.9,N
1513688555.5,286047005.7,N
1513688575.4,286047004.3,N
1513688595.2,286047001.5,N
1513688615.0,286046999.8,N
1513688615.9,286046999.8,N
1513688635.8,286046999.8,N
1513688655.6,286047002.1,N
1513688675.4,286047001.7,N
1513688695.3,286047003.6,N
1513688715.1,286047004.1,N
1513688716.0,286047004.1,N
1513688735.8,286047003.1,N
1513688755.7,286047004.4,N
1513688775.5,286047000.9,N
1513688795.3,286047002.2,N
1513688815.1,286047000.2,N
1513688835.9,286046998.3,N
1513688855.7,286047002.3,N
1513688875.5,286046999.8,N
1513688895.4,286047001.3,N
1513688915.2,286046998.9,N
1513688935.0,286046998.9,N
1513688935.9,286046998.9,N
1513688955.8,286047004.0,N
1513688975.6,286047002.8,N
1513688995.4,286046999.9,N
1513689015.3,286046999.1,N
1513689035.1,286046998.1,N
1513689036.0,286046998.1,N
1513689055.8,286046996.1,N
1513689075.7,286046993.0,Y
1513689095.5,286046991.1,P
1513689115.3,286046992.9,N
1513689135.2,286046993.7,N
1513689155.9,286046995.4,N
1513689175.7,286046994.0,N
1513689195.6,286046996.0,N
1513689215.4,286046994.0,N
1513689235.2,286046995.4,N
1513689255.0,286046994.1,N
1513689255.9,286046994.1,N
1513689275.8,286046990.1,Y
1513689295.6,286046997.5,P
1513689315.4,286046999.5,N
1513689335.3,286046995.2,N
1513689355.1,286046997.9,N
1513689375.8,286046996.3,N
1513689395.7,286046989.0,Y
1513689415.5,286046991.9,P
1513689435.3,286046992.0,P
1513689455.2,286046990.8,P
1513689475.9,286046985.6,Y
1513689495.7,286046993.7,P
1513689515.6,286046996.0,P
1513689535.4,286046994.3,P
1513689555.2,286046993.1,Y
1513689575.1,286046996.7,P
1513689576.0,286046996.7,N
1513689595.8,286046997.1,N
1513689615.6,286046997.5,N
1513689635.5,286046996.2,Y
1513689655.3,286047000.2,P
1513689675.1,286047000.3,N
1513689695.9,286047003.0,N
1513689715.7,286047004.3,N
1513689735.5,286047004.4,N
1513689755.4,286047004.3,N
1513689775.2,286047001.7,N
1513689795.0,286047002.3,N
1513689795.9,286047002.3,N
1513689815.8,286047000.3,N
1513689835.6,286047001.0,N
1513689855.4,286047001.0,N
1513689875.3,286047001.7,N
1513689895.1,286047003.9,N
1513689896.0,286047003.9,N
1513689915.8,286047005.6,N
1513689935.6,286047003.1,N
1513689955.5,286047003.3,N
1513689975.3,286047004.4,N
1513689995.1,286047002.8,N
1513690015.9,286046999.1,N
1513690035.7,286047000.9,N
1513690055.5,286046996.5,N
1513690075.4,286046997.3,N
1513690095.2,286046995.2,N
1513690115.0,286046996.3,N
1513690115.9,286046996.3,N
1513690135.8,286046994.1,N
1513690155.6,286046993.8,N
1513690175.4,286046994.1,N
1513690195.3,286046993.7,N
1513690215.1,286046994.6,N
1513690216.0,286046994.6,N
1513690235.8,286046988.9,N
1513690255.7,286046987.4,N
1513690275.5,286046987.6,N
1513690295.3,286046989.5,N
1513690315.1,286046987.8,N
1513690335.9,286046989.7,N
1513690355.7,286046984.1,N
1513690375.5,286046985.0,N
1513690395.4,286046985.1,N
1513690415.2,286046980.6,Y
1513690435.0,286046986.9,P
1513690435.9,286046986.9,P
1513690455.8,286046991.5,N
1513690475.6,286046993.1,N
1513690495.4,286046991.2,N
1513690515.3,286046988.8,Y
1513690535.1,286046997.1,P
1513690555.8,286046995.3,N
1513690575.7,286046998.8,N
1513690595.5,286046999.0,N
1513690615.3,286046991.8,N
1513690635.2,286046992.4,N
1513690655.9,286046996.0,N
1513690675.7,286046997.1,N
1513690695.6,286046995.0,N
1513690715.4,286046995.0,N
1513690735.2,286046996.1,N
1513690755.1,286046991.7,Y
1513690756.0,286046991.7,P
1513690775.8,286046995.6,N
1513690795.6,286046994.4,P
1513690815.5,286046992.2,Y
1513690835.3,286046996.7,P
1513690855.1,286047001.1,N
1513690875.8,286047002.2,N
1513690895.7,286047002.5,N
1513690915.5,286046996.6,N
1513690935.3,286046996.6,N
1513690955.2,286046995.0,N
1513690975.9,286046993.3,N
1513690995.7,286046993.4,N
1513691015.6,286046997.8,N
1513691035.4,286046999.0,N
1513691055.2,286046998.7,N
1513691075.1,286046998.3,N
1513691076.0,286046998.3,N
1513691095.8,286046999.9,N
1513691115.6,286046999.9,N
1513691135.5,286047002.2,N
1513691155.3,286047005.6,N
1513691175.1,286047004.0,N
1513691195.8,286047000.5,N
1513691215.7,286047001.0,N
1513691235.5,286046999.3,N
1513691255.3,286047000.4,N
1513691275.2,286046999.7,N
1513691295.9,286047004.3,N
1513691315.7,286047003.4,N
1513691335.6,286047004.6,N
1513691355.4,286047009.1,N
1513691375.2,286047013.9,Y
1513691395.1,286047013.8,P
1513691396.0,286047013.8,N
1513691415.8,286047018.7,N
1513691435.6,286047018.2,N
1513691455.5,286047016.8,N
1513691475.3,286047018.6,N
1513691495.1,286047020.1,Y
1513691515.9,286047007.5,P
1513691535.7,286047005.0,N
1513691555.5,286047009.0,N
1513691575.4,286047007.5,N
1513691595.2,286047002.9,N
1513691615.0,286047001.3,N
1513691615.9,286047001.3,N
1513691635.7,286047002.7,N
1513691655.6,286047003.6,N
1513691675.4,286047003.4,N
1513691695.2,286047004.0,N
1513691715.1,286047004.6,N
1513691716.0,286047004.6,N
1513691735.8,286047006.9,N
1513691755.6,286047007.7,N
1513691775.5,286047011.3,Y
1513691795.3,286047006.4,P
1513691815.1,286047010.0,P
1513691835.9,286047011.3,P
1513691855.7,286047011.5,Y
1513691875.5,286047001.6,P
1513691895.4,286047003.9,N
1513691915.2,286047001.8,N
1513691935.0,286047003.8,N
1513691935.9,286047003.8,N
1513691955.8,286047002.9,N
1513691975.6,286047007.3,Y
1513691995.4,286047004.0,P
